Location: Leipzig
(51.3392°N, 12.3528°E)
Time: 16:39:51
(UTC+01:00)

ISS - Pass Details

Date: 15 November 2017
Orbit: 402 x 407 km, 51.6° (Epoch: 22 November)

Event Time Altitude Azimuth Distance (km) Brightness Sun altitude
Exits shadow 04:55:20 26° 144° (SE) 843 -1.9 -23.6°
Drops below altitude 10° 04:56:59 10° 129° (SE) 1,453 -0.4 -23.4°
Sets 04:59:05 0° 124° (ESE) 2,309 0.9 -23.1°
